Temp_Advection
nan nan nan nan nan nan nan nan nan nan nan nan nan nan nan nan nan nan nan nan nan nan nan nan nan nan nan nan nan nan nan nan nan
nan -0 -0 0 0 0 -0 -0 -0 0 0 -0 -0 0 -0 -0 -0 -0 -0 -0 -0 -0 -0 0 0 0 -0 -0 0 -0 -0 0 nan
nan -0 -0 0 0 -0 -0 -0 -0 -0 -0 -0 0 -0 -0 -0 -0 0 -0 -0 -0 -0 -0 -0 0 0 0 -0 -0 0 0 0 nan
nan 0 -0 0 0 -0 -0 -0 -0 -0 -0 -0 -0 -0 -0 -0 -0 -0 -0 -0 -0 -0 -0 -0 -0 -0 0 0 -0 -0 -0 -0 nan
nan -0 -0 0 0 0 -0 -0 -0 -0 -0 -0 -0 -0 -0 -0 -0 -0 -0 -0 -0 -0 -0 -0 -0 -0 -0 0 0 -0 -0 -0 nan
nan -0 0 0 0 0 -0 -0 -0 -0 -0 -0 -0 -0 -0 -0 -0 -0 -0 -0 -0 -0 -0 -0 -0 -0 -0 0 0 0 -0 -0 nan
nan 0 0 0 0 0 -0 -0 -0 -0 -0 -0 -0 -0 -0 -0 -0 -0 -0 -0 -0 -0 -0 -0 -0 -0 -0 -0 -0 -0 -0 0 nan
nan 0 0 0 0 0 0 0 -0 -0 -0 -0 -0 -0 0 -0 0 -0 -0 -0 -0 -0 -0 -0 -0 0 -0 -0 -0 -0 -0 -0 nan
nan 0 0 0 0 0 0 -0 0 0 0 0 -0 -0 0 0 0 -0 -0 0 0 0 -0 -0 -0 -0 -0 -0 -0 -0 -0 -0 nan
nan 0 0 0 0 0 0 -0 -0 -0 -0 0 0 -0 -0 -0 0 -0 -0 0 0 0 -0 -0 -0 -0 -0 -0 -0 -0 -0 -0 nan
nan 0 0 0 0 0 0 0 -0 -0 -0 -0 -0 -0 -0 -0 -0 -0 -0 0 0 -0 -0 -0 -0 -0 -0 -0 -0 -0 -0 -0 nan
nan 0 0 0 0 0 0 -0 -0 -0 0 0 -0 -0 -0 -0 -0 -0 0 -0 -0 -0 -0 -0 -0 -0 -0 -0 -0 -0 -0 -0 nan
nan 0 0 0 0 -0 -0 -0 0 0 0 0 0 -0 0 0 0 0 0 0 -0 -0 -0 -0 -0 -0 -0 -0 -0 -0 -0 -0 nan
nan 0 0 0 -0 -0 0 -0 -0 -0 -0 -0 -0 -0 0 0 0 0 0 -0 -0 -0 -0 -0 -0 -0 -0 -0 -0 -0 0 -0 nan
nan 0 0 -0 0 0 -0 -0 -0 -0 -0 -0 -0 -0 0 0 0 0 0 0 0 -0 -0 -0 -0 -0 -0 -0 -0 -0 -0 -0 nan
nan 0 -0 0 0 0 -0 -0 -0 -0 -0 -1 -1 -0 -0 0 0 0 -0 -0 0 0 -0 -0 -1 -1 -0 -0 -0 -0 -0 -0 nan
nan -0 0 0 0 -0 -0 -0 -0 -0 -1 -1 -1 -0 -0 0 -0 0 0 0 -0 -0 -0 -0 -0 -1 -1 -1 -0 -0 -1 -0 nan
nan 0 0 0 0 -0 -0 -0 -0 -0 -0 -0 -0 -0 -0 -2 -1 -1 -0 -0 -1 -0 -0 -1 -1 -1 -1 -1 -1 -1 -1 -0 nan
nan 0 0 0 0 -0 -0 -0 -0 -0 -0 -0 -0 -0 0 -0 -1 -2 -1 -1 -2 -2 -1 -1 -1 -1 -1 -1 -1 -1 -2 -0 nan
nan nan nan nan nan nan nan nan nan nan nan nan nan nan nan nan nan nan nan nan nan nan nan nan nan nan nan nan nan nan nan nan nan
Wind_Speed
4 5 6 6 7 7 5 5 5 5 5 4 2 1 1 3 3 4 4 4 4 3 4 5 9 10 12 8 8 12 12 12 15
0 4 5 5 6 7 7 6 4 3 2 1 1 1 1 3 3 3 4 3 4 4 3 4 6 8 11 9 10 11 13 16 16
4 4 3 3 5 5 5 4 3 3 3 2 2 2 2 2 3 3 3 3 4 5 5 6 7 7 11 10 9 9 11 14 16
4 3 1 2 3 3 3 3 3 3 3 2 2 2 2 3 3 4 5 6 6 6 8 9 10 9 9 11 12 11 11 12 14
7 5 2 1 2 2 2 2 2 2 2 2 3 4 5 6 8 9 10 10 9 10 11 14 15 16 15 15 15 16 16 16 15
8 6 4 3 2 2 2 1 2 2 3 4 6 7 9 10 11 11 10 10 9 11 13 15 14 15 14 13 15 17 20 20 20
8 6 4 3 2 1 1 2 3 4 5 6 8 10 13 13 14 14 14 14 14 15 16 17 18 17 16 16 17 19 20 19 20
6 5 4 4 2 2 3 4 5 7 7 8 12 14 17 15 16 17 16 16 15 15 15 15 15 16 18 19 20 21 21 20 21
5 4 4 4 3 3 4 4 5 7 10 13 16 17 17 18 18 18 18 18 18 17 17 17 17 18 17 19 20 20 21 22 22
3 3 4 3 4 3 4 7 9 11 14 16 18 20 19 18 18 20 21 20 18 18 17 18 19 19 19 19 21 21 21 23 24
3 5 5 6 7 7 8 9 12 14 15 17 18 19 20 21 21 21 20 18 16 15 15 15 15 15 15 17 18 19 20 21 23
6 5 6 6 6 7 10 13 14 15 15 17 20 21 20 20 20 18 16 14 13 13 12 13 14 16 18 19 21 21 22 24 27
8 6 7 9 8 9 10 11 15 18 19 19 20 20 19 18 15 13 11 10 10 12 13 15 18 20 21 22 23 25 25 27 29
9 6 9 8 7 7 10 14 17 19 19 17 16 16 15 14 12 10 9 10 12 14 15 20 21 24 26 26 27 28 27 28 31
10 8 8 7 6 9 12 15 17 17 17 15 14 13 10 10 9 9 12 16 16 18 22 24 26 28 29 29 28 29 29 30 32
10 8 8 6 7 10 12 13 14 15 17 16 15 8 4 13 12 11 11 19 20 23 23 27 28 29 27 27 28 30 30 31 32
9 10 8 7 8 10 12 13 14 16 18 18 14 7 7 2 8 20 22 24 12 23 25 28 27 27 29 28 28 30 31 32 33
11 10 8 7 8 11 12 13 14 14 16 16 12 7 4 24 6 22 15 20 26 30 31 29 31 28 28 30 30 31 31 32 30
13 10 7 7 9 11 13 14 14 14 14 15 15 13 13 9 13 15 28 26 36 35 32 35 28 30 29 30 30 30 32 32 29
13 9 7 8 9 11 13 14 14 15 16 16 16 16 17 16 15 23 29 38 37 35 40 32 34 33 31 31 34 36 31 29 28
Wind_Direction
49 65 60 54 66 73 109 140 180 210 226 231 222 246 59 41 25 12 355 354 344 319 258 248 248 254 257 277 283 243 239 246 252
220 25 45 56 73 82 90 99 106 117 166 137 38 143 108 43 29 32 27 18 11 9 332 292 293 251 280 268 276 270 255 249 252
227 318 360 46 74 80 82 87 89 83 64 29 25 30 15 7 346 346 334 321 326 331 331 327 320 292 259 272 276 278 267 259 257
201 246 284 90 88 77 70 56 49 37 38 29 24 10 339 329 317 312 300 297 304 313 320 308 305 299 278 263 272 284 285 279 277
198 232 211 133 85 81 77 73 67 40 6 337 327 321 311 309 304 300 294 296 303 302 301 295 292 285 281 274 269 274 282 284 282
206 199 188 186 125 115 98 39 344 337 331 320 320 322 323 320 313 308 306 301 296 294 293 299 299 298 297 288 284 282 278 278 277
184 192 201 181 171 174 330 315 317 318 317 318 317 319 314 314 309 304 300 298 293 291 290 286 289 293 292 289 290 285 286 284 276
184 201 210 208 226 276 289 300 316 316 322 321 312 307 305 307 305 303 301 299 299 298 296 294 293 288 288 286 284 286 288 282 278
188 193 218 233 246 276 289 299 298 305 300 302 299 297 299 303 302 301 301 302 300 296 293 293 288 290 287 285 284 284 284 282 281
229 239 259 249 268 274 275 287 290 293 294 294 295 295 298 301 300 299 299 298 297 294 289 288 288 291 290 286 285 286 283 282 280
237 249 278 272 268 271 282 286 285 288 293 295 296 296 299 299 298 297 296 297 295 293 293 295 295 295 292 288 288 287 286 284 280
230 266 296 274 268 263 271 284 293 298 301 301 298 297 298 298 297 295 295 296 296 295 296 298 298 296 293 290 288 285 285 286 284
222 253 291 274 266 277 288 298 303 305 306 307 304 303 304 302 297 293 292 293 294 294 297 302 305 303 303 300 295 290 289 287 284
221 246 284 260 271 287 300 306 309 310 312 312 309 307 304 295 287 284 288 295 299 298 300 309 309 308 304 302 300 297 293 289 288
227 260 263 253 269 292 308 313 316 316 324 328 325 318 302 290 274 271 288 292 295 300 306 306 309 310 308 305 301 297 295 293 292
237 250 237 246 277 299 313 322 326 326 332 338 345 332 313 293 272 271 296 300 295 298 302 306 307 309 308 305 302 299 298 295 293
223 221 227 254 288 313 324 332 336 338 344 351 350 339 326 255 311 288 294 295 310 303 303 309 313 313 311 308 305 303 301 299 297
211 215 234 268 303 318 330 340 342 343 344 348 360 341 304 308 295 309 296 303 308 312 318 322 322 321 317 314 310 307 304 302 300
206 218 243 283 310 326 336 337 340 343 342 342 342 335 318 316 312 312 308 313 316 321 325 325 325 322 318 314 311 308 305 302 300
205 221 260 297 319 330 334 337 338 339 339 338 335 330 324 318 305 307 311 313 319 320 324 324 325 325 321 318 317 316 307 303 299
Height
1531 1531 1531 1532 1531 1531 1532 1533 1534 1534 1535 1534 1534 1534 1533 1533 1533 1531 1531 1531 1530 1529 1529 1529 1530 1530 1530 1530 1530 1529 1530 1530 1530
1532 1533 1532 1533 1532 1531 1533 1533 1534 1533 1534 1534 1533 1533 1533 1533 1532 1532 1531 1530 1529 1528 1528 1528 1528 1528 1529 1528 1528 1528 1528 1528 1528
1533 1533 1533 1533 1533 1532 1533 1533 1533 1533 1533 1534 1533 1532 1532 1532 1533 1531 1531 1530 1529 1528 1527 1527 1527 1526 1526 1526 1526 1526 1525 1525 1525
1533 1534 1533 1533 1532 1533 1533 1533 1533 1534 1533 1533 1533 1533 1532 1531 1532 1531 1530 1529 1528 1527 1526 1526 1525 1524 1524 1524 1523 1523 1523 1523 1523
1532 1533 1533 1533 1532 1532 1533 1533 1533 1533 1533 1533 1532 1532 1531 1530 1530 1530 1529 1528 1527 1526 1524 1523 1523 1522 1522 1521 1521 1520 1520 1519 1519
1531 1532 1532 1532 1532 1532 1533 1533 1533 1532 1531 1531 1531 1531 1530 1529 1529 1529 1528 1527 1525 1524 1523 1521 1521 1520 1519 1518 1517 1517 1516 1515 1515
1529 1531 1531 1531 1531 1532 1532 1533 1532 1531 1530 1530 1530 1530 1529 1527 1527 1526 1525 1524 1523 1522 1520 1518 1517 1516 1515 1514 1513 1512 1512 1511 1510
1528 1529 1530 1530 1530 1531 1531 1531 1531 1530 1530 1529 1529 1528 1527 1524 1524 1524 1522 1521 1520 1518 1516 1515 1514 1513 1512 1510 1509 1508 1507 1506 1505
1527 1528 1529 1529 1530 1529 1530 1530 1529 1528 1528 1528 1527 1525 1524 1521 1521 1520 1518 1518 1517 1515 1513 1511 1510 1509 1508 1507 1505 1504 1503 1501 1501
1526 1527 1528 1528 1529 1528 1528 1528 1527 1526 1525 1524 1523 1522 1520 1517 1517 1516 1515 1513 1512 1511 1509 1507 1506 1505 1504 1503 1501 1500 1499 1498 1497
1524 1525 1526 1526 1527 1526 1526 1526 1524 1523 1521 1520 1520 1518 1515 1513 1512 1511 1510 1509 1507 1506 1504 1503 1502 1502 1500 1499 1497 1496 1494 1493 1491
1522 1523 1524 1524 1525 1524 1524 1523 1522 1520 1518 1516 1516 1513 1510 1509 1507 1506 1505 1504 1503 1502 1501 1500 1499 1498 1496 1495 1493 1491 1490 1487 1485
1520 1521 1520 1522 1522 1522 1521 1520 1518 1517 1514 1512 1511 1508 1505 1504 1503 1502 1501 1501 1500 1499 1498 1496 1495 1493 1491 1489 1488 1486 1484 1481 1479
1517 1518 1519 1519 1519 1519 1519 1518 1516 1514 1511 1510 1507 1504 1502 1500 1499 1499 1499 1498 1497 1496 1494 1492 1491 1489 1487 1484 1482 1479 1477 1474 1472
1515 1515 1516 1517 1516 1518 1516 1515 1512 1510 1508 1507 1504 1500 1499 1497 1496 1496 1496 1495 1493 1492 1490 1488 1485 1483 1481 1478 1475 1472 1470 1468 1465
1512 1513 1514 1515 1515 1515 1514 1512 1509 1508 1504 1503 1501 1498 1496 1495 1493 1493 1492 1492 1490 1488 1487 1484 1481 1478 1475 1472 1468 1465 1463 1461 1458
1509 1511 1512 1513 1513 1512 1511 1509 1506 1503 1501 1499 1496 1495 1495 1492 1492 1490 1489 1487 1485 1485 1483 1480 1476 1472 1468 1465 1462 1459 1456 1453 1451
1507 1509 1510 1511 1511 1510 1508 1505 1504 1502 1500 1498 1498 1495 1493 1489 1486 1486 1483 1483 1480 1478 1474 1472 1468 1464 1461 1457 1454 1451 1447 1444 1442
1505 1507 1507 1508 1507 1507 1504 1503 1501 1499 1499 1497 1495 1494 1492 1489 1481 1477 1476 1473 1470 1468 1466 1464 1461 1458 1454 1450 1446 1443 1439 1436 1434
1503 1504 1505 1505 1504 1503 1502 1500 1499 1497 1495 1493 1492 1491 1488 1486 1483 1472 1468 1465 1463 1459 1457 1455 1452 1449 1445 1441 1437 1433 1429 1427 1425